Stations météo

Publicité
Lyon/Bron, France (7480): Température de l'air & dewpoint: 16.07.2018 10:00:00 - 22.07.2018 10:00:00 (CEST)Lyon/Bron, France (7480): Température de l'air 5cm: 16.07.2018 10:00:00 - 22.07.2018 10:00:00 (CEST)Lyon/Bron, France (7480): Température de l'air -20cm: 16.07.2018 10:00:00 - 22.07.2018 10:00:00 (CEST)Lyon/Bron, France (7480): Vitesse du vent & gusts: 16.07.2018 10:00:00 - 22.07.2018 10:00:00 (CEST)Lyon/Bron, France (7480): Direction du vent: 16.07.2018 10:00:00 - 22.07.2018 10:00:00 (CEST)Lyon/Bron, France (7480): reduced air pressure: 16.07.2018 10:00:00 - 22.07.2018 10:00:00 (CEST)Lyon/Bron, France (7480): visibility: 16.07.2018 10:00:00 - 22.07.2018 10:00:00 (CEST)Lyon/Bron, France (7480): Ensoleillement: 16.07.2018 10:00:00 - 22.07.2018 10:00:00 (CEST)Lyon/Bron, France (7480): Quantités de précipitations: 16.07.2018 10:00:00 - 22.07.2018 10:00:00 (CEST)
Date & Time tt [°C] td [°C] tt 5cm [°C] tt -20cm [°C] ff [km/h] ff [knt] fx [km/h] fx [knt] dd ppp [hPa] vv [km] sd [min] rr [mm]
22.07.2018 10:00:00 23,0 13,7 23,5 23,4 16 9 24 13 N 1014,6 33 60 0,0
22.07.2018 09:00:00 21,0 13,4 20,0 23,5 14 7 21 11 N 1015,0 20 33 0,0
22.07.2018 08:00:00 18,2 13,9 16,7 23,7 0 0 0 0 N 1015,2 21 29 0,0
22.07.2018 07:00:00 15,8 14,0 15,5 23,9 0 0 3 2 N 1015,2 17 19 0,0
22.07.2018 06:00:00 15,9 13,7 15,6 24,1 2 1 3 2 ESE 1015,0 14 0 0,0
22.07.2018 05:00:00 16,6 14,1 16,1 24,3 3 2 5 3 SE 1014,9 13 0 0,0
22.07.2018 04:00:00 16,9 13,8 16,4 24,4 4 2 6 3 SSE 1014,8 23 0 0,0
22.07.2018 03:00:00 17,8 13,7 17,1 24,6 4 2 7 4 ESE 1014,4 27 0 0,0
22.07.2018 02:00:00 18,7 13,5 17,5 24,8 3 1 5 3 SE 1014,8 20 0 0,0
22.07.2018 01:00:00 19,6 13,1 18,1 24,9 2 1 16 9 NNW 1014,6 36 0 0,0
22.07.2018 00:00:00 20,7 13,4 19,0 25,0 14 8 21 12 NW 1014,4 39 0 0,0
21.07.2018 23:00:00 21,9 13,8 20,1 25,1 12 6 28 15 NW 1014,2 41 0 0,0
21.07.2018 22:00:00 23,2 13,1 21,7 25,2 8 5 13 7 NNW 1013,9 48 0 0,0
21.07.2018 21:00:00 24,0 12,6 23,2 25,2 10 5 17 9 N 1013,2 51 17 0,0
21.07.2018 20:00:00 24,3 12,3 24,4 25,1 13 7 24 13 N 1012,6 53 1 0,0
21.07.2018 19:00:00 24,9 13,1 27,6 25,0 11 6 25 13 NNE 1012,3 48 17 0,0
21.07.2018 18:00:00 24,9 13,4 28,4 24,9 12 7 21 12 N 1012,4 53 5 0,0
21.07.2018 17:00:00 24,8 12,7 29,1 24,7 14 8 25 13 N 1012,6 51 16 0,0
21.07.2018 16:00:00 25,6 13,4 31,5 24,4 14 7 24 13 N 1012,7 37 21 0,0
21.07.2018 15:00:00 25,1 14,2 32,0 24,2 12 7 24 13 N 1013,2 42 23 0,0
21.07.2018 14:00:00 24,8 14,0 34,3 24,1 11 6 23 13 NNE 1013,7 20 55 0,0
21.07.2018 13:00:00 24,0 14,4 26,2 24,0 13 7 23 12 N 1013,8 30 16 0,0
21.07.2018 12:00:00 22,1 15,7 25,8 24,0 11 6 24 13 NE 1014,2 25 21 0,0
21.07.2018 11:00:00 20,7 16,5 22,1 24,0 5 3 9 5 N 1014,0 19 1 0,0
21.07.2018 10:00:00 19,6 15,7 21,4 24,1 0 0 0 0 N 1013,9 36 0 0,0
21.07.2018 09:00:00 18,7 15,4 20,5 24,2 0 0 6 4 N 1013,7 10 0 0,0
21.07.2018 08:00:00 18,3 16,8 19,8 24,4 2 1 7 4 SSW 1013,3 7 0 0,0
21.07.2018 07:00:00 17,7 16,4 19,0 24,5 0 0 5 3 N 1013,0 8 0 0,0
21.07.2018 06:00:00 17,4 15,9 19,0 24,7 0 0 0 0 N 1013,0 8 0 0,0
21.07.2018 05:00:00 17,6 16,5 18,2 24,9 0 0 7 4 N 1013,4 6 0 0,0
21.07.2018 04:00:00 17,6 16,1 18,2 25,0 2 1 8 5 ENE 1013,0 5 0 0,0
21.07.2018 03:00:00 18,1 16,8 19,0 25,2 5 3 7 4 E 1012,8 6 0 0,0
21.07.2018 02:00:00 18,0 16,3 18,8 25,4 3 1 11 6 N 1013,4 11 0 0,0
21.07.2018 01:00:00 18,0 16,2 19,0 25,6 11 6 22 12 WSW 1013,8 34 0 0,0
21.07.2018 00:00:00 18,2 16,4 19,4 25,8 9 5 24 13 S 1013,8 29 0 0,2
20.07.2018 23:00:00 18,5 16,7 20,0 25,9 11 6 18 10 SE 1014,0 15 0 1,2
20.07.2018 22:00:00 18,4 16,4 20,2 26,2 9 5 21 12 SSW 1014,6 14 0 1,4
20.07.2018 21:00:00 19,2 17,0 20,5 26,3 14 8 23 12 SSE 1014,1 7 0 0,6
20.07.2018 20:00:00 19,5 17,3 21,1 26,5 13 7 19 10 SSW 1013,6 35 0 0,0
20.07.2018 19:00:00 19,6 16,4 20,1 26,5 6 4 31 17 SE 1013,2 52 0 1,7
20.07.2018 18:00:00 19,4 16,4 22,4 26,3 9 5 42 23 NE 1013,9 29 0 5,5
20.07.2018 17:00:00 20,4 15,8 24,2 26,0 29 16 77 41 W 1012,4 3,7 1 3,6
20.07.2018 16:00:00 30,8 14,8 40,4 25,7 10 5 25 13 SE 1009,7 38 35 0,0
20.07.2018 15:00:00 30,5 14,2 42,8 25,5 4 2 16 9 N 1011,2 41 60 0,0
20.07.2018 14:00:00 28,6 14,1 41,2 25,4 6 3 16 9 NW 1012,4 43 42 0,0
20.07.2018 13:00:00 27,9 15,5 30,9 25,3 8 4 14 7 N 1013,1 21 25 0,0
20.07.2018 12:00:00 25,4 15,4 27,3 25,3 6 4 14 8 SSW 1014,0 29 0 0,0
20.07.2018 11:00:00 24,8 14,0 28,3 25,4 3 2 12 7 WNW 1014,0 40 7 0,0
20.07.2018 10:00:00 24,8 14,9 27,0 25,5 4 2 23 12 N 1014,2 28 33 0,0
20.07.2018 09:00:00 22,9 14,7 23,8 25,6 14 7 30 16 NW 1014,5 27 42 0,0
20.07.2018 08:00:00 21,5 13,7 21,3 25,8 5 3 10 5 SW 1014,1 25 25 0,0
20.07.2018 07:00:00 20,1 13,5 20,0 26,0 3 1 6 4 E 1013,6 30 25 0,0
20.07.2018 06:00:00 20,2 13,2 20,4 26,2 4 2 7 4 SSE 1013,4 25 0 0,0
20.07.2018 05:00:00 20,4 11,9 20,6 26,4 2 1 7 4 SW 1013,3 38 0 0,0
20.07.2018 04:00:00 20,9 11,8 21,0 26,5 4 2 8 4 SSW 1013,3 41 0 0,0
20.07.2018 03:00:00 21,6 12,4 21,6 26,8 4 2 8 5 S 1013,3 36 0 0,0
20.07.2018 02:00:00 22,1 14,2 22,1 26,9 4 2 6 4 S 1013,7 25 0 0,0
20.07.2018 01:00:00 23,1 14,1 22,7 27,1 5 3 8 4 S 1013,7 37 0 0,0
20.07.2018 00:00:00 24,4 14,5 24,1 27,2 4 2 5 3 SSW 1013,6 20 0 0,0
19.07.2018 23:00:00 25,5 13,4 25,7 27,3 0 0 8 4 N 1013,3 36 0 0,0
19.07.2018 22:00:00 27,5 12,7 26,6 27,3 7 4 14 8 ENE 1012,9 20 0 0,0
19.07.2018 21:00:00 29,6 11,2 29,3 27,2 8 4 19 10 NE 1012,2 52 56 0,0
19.07.2018 20:00:00 31,4 10,1 34,0 27,0 11 6 21 11 NNE 1012,0 41 60 0,0
19.07.2018 19:00:00 32,3 10,3 38,6 26,7 11 6 29 16 N 1012,0 41 60 0,0
19.07.2018 18:00:00 32,4 9,2 42,8 26,4 9 5 34 19 NNW 1012,1 38 60 0,0
19.07.2018 17:00:00 32,3 10,3 46,0 26,0 9 5 25 13 NNW 1012,6 60 60 0,0
19.07.2018 16:00:00 31,8 9,9 47,4 25,6 13 7 22 12 NW 1013,3 60 60 0,0
19.07.2018 15:00:00 30,8 10,7 47,8 25,3 10 6 24 13 NNE 1013,6 20 60 0,0
19.07.2018 14:00:00 30,5 11,5 46,3 25,0 8 4 22 12 NW 1014,1 53 60 0,0
19.07.2018 13:00:00 30,0 12,9 41,9 24,8 6 4 21 12 NNE 1014,6 30 60 0,0
19.07.2018 12:00:00 28,2 12,9 37,3 24,7 9 5 19 10 N 1015,0 60 60 0,0
19.07.2018 11:00:00 26,6 13,0 33,5 24,7 3 1 16 8 N 1015,3 26 60 0,0
19.07.2018 10:00:00 25,6 12,4 28,7 24,8 5 3 14 7 NNE 1015,3 43 60 0,0
19.07.2018 09:00:00 23,9 14,3 23,0 25,0 0 0 4 2 N 1015,4 33 60 0,0
19.07.2018 08:00:00 21,0 13,2 18,6 25,2 0 0 5 3 N 1015,4 38 60 0,0
19.07.2018 07:00:00 17,5 12,8 18,0 25,4 0 0 3 2 N 1015,5 41 26 0,0
19.07.2018 06:00:00 17,1 12,8 18,0 25,6 3 2 5 3 SSW 1015,6 38 0 0,0
19.07.2018 05:00:00 18,0 12,9 18,7 25,8 0 0 3 2 N 1015,6 40 0 0,0
19.07.2018 04:00:00 19,5 13,0 20,1 26,0 0 0 7 4 N 1015,6 38 0 0,0
19.07.2018 03:00:00 20,1 13,1 20,2 26,1 6 3 9 5 SSW 1015,6 38 0 0,0
19.07.2018 02:00:00 20,9 13,3 21,1 26,3 3 1 8 4 SSW 1015,5 36 0 0,0
19.07.2018 01:00:00 21,4 13,1 21,5 26,5 5 3 7 4 S 1015,7 43 0 0,0
19.07.2018 00:00:00 22,7 12,0 22,5 26,6 0 0 9 5 N 1015,5 45 0 0,0
18.07.2018 23:00:00 23,9 11,9 23,4 26,7 0 0 10 6 N 1014,7 39 0 0,0
18.07.2018 22:00:00 25,7 11,5 24,9 26,7 5 3 16 9 NNE 1014,5 59 0 0,0
18.07.2018 21:00:00 28,0 10,7 28,1 26,6 11 6 24 13 NNE 1013,3 60 60 0,0
18.07.2018 20:00:00 29,7 10,8 32,3 26,5 16 9 23 13 N 1013,1 60 60 0,0
18.07.2018 19:00:00 30,4 10,9 36,8 26,2 10 6 21 12 N 1012,9 56 60 0,0
18.07.2018 18:00:00 30,6 9,5 40,8 25,9 9 5 23 12 N 1013,0 41 60 0,0
18.07.2018 17:00:00 30,7 9,6 43,9 25,5 11 6 25 14 N 1013,6 13 60 0,0
18.07.2018 16:00:00 30,6 10,5 44,0 25,1 8 4 29 16 N 1014,1 56 60 0,0
18.07.2018 15:00:00 30,0 11,5 42,8 24,8 8 4 23 12 N 1014,5 60 60 0,0
18.07.2018 14:00:00 28,6 12,1 42,7 24,5 14 8 32 17 NNE 1015,0 60 60 0,0
18.07.2018 13:00:00 27,6 12,0 39,5 24,3 8 5 22 12 NE 1015,8 60 60 0,0
18.07.2018 12:00:00 26,6 12,6 36,4 24,2 10 5 22 12 N 1016,3 60 60 0,0
18.07.2018 11:00:00 25,6 11,4 31,3 24,2 12 6 22 12 NNE 1016,8 39 60 0,0
18.07.2018 10:00:00 24,1 11,1 27,1 24,3 9 5 24 13 N 1017,1 28 60 0,0
18.07.2018 09:00:00 22,4 11,2 22,5 24,4 4 2 9 5 NNW 1017,3 38 60 0,0
18.07.2018 08:00:00 20,5 13,2 18,2 24,7 0 0 0 0 N 1017,4 20 60 0,0
18.07.2018 07:00:00 17,2 13,1 17,6 24,9 0 0 0 0 N 1017,5 46 27 0,0
18.07.2018 06:00:00 16,4 11,8 17,7 25,1 0 0 0 0 N 1017,6 49 0 0,0
18.07.2018 05:00:00 17,2 12,1 18,2 25,2 0 0 4 2 N 1017,6 50 0 0,0
18.07.2018 04:00:00 19,0 11,8 19,2 25,4 0 0 7 4 N 1017,5 54 0 0,0
18.07.2018 03:00:00 20,8 12,0 20,5 25,6 5 3 12 6 N 1017,7 60 0 0,0
18.07.2018 02:00:00 21,6 12,2 21,5 25,8 5 3 17 9 N 1017,9 60 0 0,0
18.07.2018 01:00:00 22,6 13,1 22,1 25,9 12 6 21 11 NNW 1017,9 59 0 0,0
18.07.2018 00:00:00 22,8 13,0 22,5 26,1 9 5 15 8 N 1017,6 58 0 0,0
17.07.2018 23:00:00 23,3 13,2 23,4 26,2 9 5 15 8 N 1017,2 58 0 0,0
17.07.2018 22:00:00 25,0 12,6 24,8 26,2 11 6 23 12 N 1016,7 58 0 0,0
17.07.2018 21:00:00 26,7 12,4 26,6 26,2 16 8 29 16 N 1016,1 50 60 0,0
17.07.2018 20:00:00 28,1 12,4 30,0 26,0 18 10 35 19 N 1015,7 44 60 0,0
17.07.2018 19:00:00 29,0 13,2 34,0 25,8 26 14 40 22 NNW 1015,4 47 57 0,0
17.07.2018 18:00:00 30,1 13,0 35,4 25,6 19 11 31 17 N 1015,4 56 48 0,0
17.07.2018 17:00:00 29,2 12,6 35,1 25,2 18 10 32 18 N 1015,6 56 38 0,0
17.07.2018 16:00:00 29,7 13,9 41,4 24,9 17 9 33 18 N 1015,7 60 60 0,0
17.07.2018 15:00:00 28,7 13,4 38,7 24,6 18 10 33 18 NNW 1016,1 20 57 0,0
17.07.2018 14:00:00 28,0 12,8 37,7 24,3 18 10 29 16 NW 1016,6 52 60 0,0
17.07.2018 13:00:00 27,3 13,6 35,8 24,1 16 9 29 16 N 1017,0 37 60 0,0
17.07.2018 12:00:00 26,0 14,1 32,6 24,0 13 7 29 15 N 1017,1 28 60 0,0
17.07.2018 11:00:00 24,7 14,2 29,3 24,0 15 8 26 14 NW 1017,3 26 60 0,0
17.07.2018 10:00:00 23,9 14,0 25,4 24,1 11 6 22 12 N 1017,2 22 60 0,0
17.07.2018 09:00:00 22,6 14,2 22,1 24,2 13 7 27 14 NW 1017,1 21 60 0,0
17.07.2018 08:00:00 21,8 13,7 20,1 24,3 18 10 27 15 NW 1017,1 20 56 0,0
17.07.2018 07:00:00 21,0 13,7 19,2 24,6 16 8 21 11 NW 1016,7 26 20 0,0
17.07.2018 06:00:00 18,8 14,1 19,3 24,7 0 0 3 2 N 1016,4 17 0 0,0
17.07.2018 05:00:00 19,2 13,4 19,9 24,9 0 0 4 2 N 1016,0 40 0 0,0
17.07.2018 04:00:00 20,1 13,3 20,5 25,1 0 0 5 3 N 1015,7 53 0 0,0
17.07.2018 03:00:00 20,7 12,9 20,6 25,2 5 3 10 5 SE 1015,3 50 0 0,0
17.07.2018 02:00:00 21,9 13,3 21,3 25,4 4 2 29 15 ESE 1015,0 47 0 0,0
17.07.2018 01:00:00 23,4 13,6 22,3 25,6 14 8 29 16 NW 1014,2 47 0 0,0
17.07.2018 00:00:00 23,6 12,6 22,5 25,7 4 2 29 16 N 1014,2 52 0 0,0
16.07.2018 23:00:00 24,5 12,4 23,4 25,9 19 11 33 18 NNW 1013,8 51 0 0,0
16.07.2018 22:00:00 24,7 12,0 24,0 25,9 23 12 32 18 NW 1012,8 57 0 0,0
16.07.2018 21:00:00 25,8 12,6 25,4 26,0 20 11 32 18 NW 1011,7 52 1 0,0
16.07.2018 20:00:00 28,5 11,1 28,0 25,9 19 11 38 21 N 1010,5 18 44 0,0
16.07.2018 19:00:00 30,0 10,0 32,0 25,8 24 13 43 23 N 1009,4 56 60 0,0
16.07.2018 18:00:00 30,7 10,6 32,7 25,5 24 13 38 21 N 1009,0 60 42 0,0
16.07.2018 17:00:00 30,0 9,5 36,3 25,2 24 13 38 21 N 1008,7 42 53 0,0
16.07.2018 16:00:00 30,4 11,4 37,7 24,9 21 12 34 18 N 1009,0 46 60 0,0
16.07.2018 15:00:00 29,7 11,2 35,3 24,5 19 10 39 21 N 1009,4 50 50 0,0
16.07.2018 14:00:00 29,3 12,7 37,3 24,2 18 10 30 16 N 1009,8 56 60 0,0
16.07.2018 13:00:00 27,6 15,9 33,5 23,9 10 6 21 11 NNW 1010,9 44 60 0,0
16.07.2018 12:00:00 25,9 15,3 31,3 23,8 4 2 14 8 NNE 1011,7 47 60 0,0
16.07.2018 11:00:00 23,7 15,7 28,5 23,7 9 5 16 8 N 1011,5 38 60 0,0
16.07.2018 10:00:00 22,4 15,5 24,7 23,8 4 2 14 8 N 1012,4 27 60 0,0

tt = Température de l'air
td = dewpoint
tt 5cm = Température de l'air 5cm
tt -20cm = Température de l'air -20cm
ff = Vitesse du vent
fx = gusts
dd = Direction du vent
ppp = reduced air pressure
vv = visibility
sd = Ensoleillement
rr = Quantités de précipitations

stations d'obs. à proximité